Wellsville, NY

2:01 PM EDT on June 28, 2017 (GMT -0400)
Wellsville Municipal-Tarantine

Weather History for KELZ - January, 2014

Change the Weather History Date:

Monday, January 20, 2014

  Actual Average (KDSV) Record (KDSV)
Temperature  
Mean Temperature 20 °F -  
Max Temperature 30 °F 31 °F 59 °F (2006)
Min Temperature 10 °F 12 °F -7 °F (1984)
Degree Days  
Heating Degree Days 45    
Moisture  
Dew Point 16 °F    
Average Humidity 75    
Maximum Humidity 86    
Minimum Humidity 64    
Precipitation  
Precipitation 0.01 in - - ()
Sea Level Pressure  
Sea Level Pressure 29.68 in    
Wind  
Wind Speed 12 mph (WNW)    
Max Wind Speed 22 mph    
Max Gust Speed 29 mph    
Visibility 6 miles    
Events Snow    
Averages and records for this station are not official NWS values.
T = Trace of Precipitation, MM = Missing Value Source: NWS Daily Summary

Daily Weather History Graph

Daily Weather History Graph

Search for Another Location

Airport or City:

Trip Planner

Search our weather history database for the weather conditions in past years. The results will help you decide how hot, cold, wet, or windy it might be!

Date:

Astronomy

Jan. 20, 2014 Rise Set
Actual Time 7:35 AM EST 5:11 PM EST
Civil Twilight 7:04 AM EST 5:41 PM EST
Nautical Twilight 6:30 AM EST 6:16 PM EST
Astronomical Twilight 5:56 AM EST 6:49 PM EST
Moon 9:50 PM EST (1/20) 9:28 AM EST (1/20)
Length of Visible Light 10h 37m
Length of Day
9h 36m
Waning Gibbous, 83% of the Moon is Illuminated
Jan 20
Waning Gibbous
Jan 24
Last Quarter
Jan 30
New
Feb 6
First Quarter
Feb 14
Full

Hourly Weather History & Observations

Time (EST) Temp. Windchill Dew Point Humidity Pressure Visibility Wind Dir Wind Speed Gust Speed Precip Events Conditions
12:56 AM 27.0 °F 15.6 °F 18.0 °F 69% 29.55 in 10.0 mi WSW 13.8 mph 19.6 mph N/A   Overcast
1:56 AM 28.0 °F 17.5 °F 18.0 °F 66% 29.55 in 10.0 mi West 12.7 mph 20.7 mph N/A   Overcast
2:56 AM 28.0 °F 19.3 °F 19.0 °F 69% 29.54 in 10.0 mi WSW 9.2 mph 18.4 mph N/A   Overcast
3:56 AM 28.0 °F 18.6 °F 19.0 °F 69% 29.52 in 10.0 mi West 10.4 mph 17.3 mph N/A   Overcast
4:56 AM 28.9 °F 21.1 °F 19.9 °F 69% 29.52 in 10.0 mi WSW 8.1 mph 18.4 mph N/A   Overcast
5:56 AM 28.9 °F 21.1 °F 21.0 °F 72% 29.54 in 9.0 mi WSW 8.1 mph - N/A   Overcast
6:56 AM 28.9 °F 19.2 °F 21.9 °F 75% 29.55 in 10.0 mi West 11.5 mph 18.4 mph N/A   Overcast
7:17 AM 28.4 °F 21.2 °F 21.2 °F 74% 29.49 in 10.0 mi West 6.9 mph - N/A   Overcast
7:56 AM 28.9 °F 19.2 °F 24.1 °F 82% 29.56 in 9.0 mi West 11.5 mph 16.1 mph N/A   Overcast
8:56 AM 28.9 °F 18.6 °F 24.1 °F 82% 29.58 in 7.0 mi West 12.7 mph - 0.00 in   Overcast
9:56 AM 30.0 °F 21.1 °F 24.1 °F 79% 29.59 in 6.0 mi West 10.4 mph 21.9 mph 0.00 in   Overcast
10:43 AM 28.4 °F 16.6 °F 24.8 °F 86% 29.54 in 2.5 mi WNW 16.1 mph 21.9 mph 0.00 in Snow Light Snow
10:56 AM 28.9 °F 18.2 °F 24.1 °F 82% 29.61 in 3.0 mi WNW 13.8 mph - 0.00 in Snow Light Snow
11:48 AM 28.4 °F 18.0 °F 23.0 °F 80% 29.55 in 4.0 mi NW 12.7 mph - 0.00 in Snow Light Snow
11:56 AM 28.0 °F 17.5 °F 21.9 °F 78% 29.62 in 3.0 mi NW 12.7 mph - 0.00 in Snow Light Snow
12:20 PM 28.4 °F 18.0 °F 21.2 °F 74% 29.56 in 2.5 mi WNW 12.7 mph - 0.01 in Snow Light Snow
12:39 PM 28.4 °F 17.5 °F 21.2 °F 74% 29.55 in 3.0 mi WNW 13.8 mph - 0.01 in Snow Light Snow
12:56 PM 28.0 °F 17.0 °F 21.0 °F 75% 29.63 in 6.0 mi West 13.8 mph 24.2 mph 0.01 in Snow Light Snow
1:29 PM 26.6 °F 15.2 °F 21.2 °F 80% 29.57 in 2.0 mi NW 13.8 mph 25.3 mph 0.00 in Snow Light Snow
1:38 PM 26.6 °F 12.4 °F 19.4 °F 74% 29.58 in 4.0 mi WNW 21.9 mph 28.8 mph 0.00 in Snow Light Snow
1:51 PM 26.6 °F 13.4 °F 19.4 °F 74% 29.59 in 1.8 mi NW 18.4 mph 25.3 mph 0.00 in Snow Light Snow
1:56 PM 26.1 °F 13.6 °F 19.9 °F 78% 29.67 in 1.2 mi NNW 16.1 mph 25.3 mph 0.00 in Snow Light Snow
2:11 PM 24.8 °F 11.9 °F 19.4 °F 80% 29.60 in 1.5 mi NW 16.1 mph 25.3 mph 0.00 in Snow Light Snow
2:28 PM 24.8 °F 14.0 °F 19.4 °F 80% 29.62 in 3.0 mi NW 11.5 mph 18.4 mph 0.00 in Snow Light Snow
2:56 PM 21.9 °F 11.0 °F 17.1 °F 82% 29.72 in 8.0 mi NNW 10.4 mph - 0.00 in   Overcast
3:27 PM 21.2 °F 10.9 °F 15.8 °F 80% 29.66 in 2.5 mi NNW 9.2 mph - 0.00 in Snow Light Snow
3:56 PM 19.9 °F 10.1 °F 15.1 °F 81% 29.77 in 1.5 mi NW 8.1 mph - 0.00 in Snow Light Snow
4:12 PM 19.4 °F 9.5 °F 15.8 °F 86% 29.70 in 1.8 mi NW 8.1 mph - 0.00 in Snow Light Snow
4:20 PM 19.4 °F 8.6 °F 14.0 °F 80% 29.70 in 2.5 mi NNW 9.2 mph 23.0 mph 0.00 in Snow Light Snow
4:28 PM 19.4 °F 6.6 °F 14.0 °F 80% 29.71 in 2.5 mi WNW 12.7 mph 18.4 mph 0.00 in Snow Light Snow
4:46 PM 19.4 °F 7.2 °F 12.2 °F 74% 29.72 in 4.0 mi NW 11.5 mph - 0.00 in Snow Light Snow
4:56 PM 18.0 °F 4.8 °F 10.9 °F 74% 29.82 in 5.0 mi NW 12.7 mph - 0.00 in Snow Light Snow
5:56 PM 16.0 °F 1.1 °F 10.0 °F 77% 29.84 in 6.0 mi NNW 15.0 mph - 0.00 in Snow Light Snow
6:51 PM 15.8 °F 1.4 °F 8.6 °F 73% 29.78 in 6.0 mi NNW 13.8 mph 20.7 mph 0.00 in Snow Light Snow
6:56 PM 15.1 °F 1.1 °F 8.1 °F 74% 29.88 in 8.0 mi NW 12.7 mph 20.7 mph 0.00 in Snow Light Snow
7:09 PM 15.8 °F 5.1 °F 8.6 °F 73% 29.79 in 10.0 mi NW 8.1 mph 19.6 mph 0.00 in   Overcast
7:19 PM 15.8 °F 1.4 °F 6.8 °F 68% 29.80 in 10.0 mi NNW 13.8 mph - 0.00 in   Overcast
7:56 PM 14.0 °F 0.5 °F 7.0 °F 74% 29.91 in 5.0 mi NNW 11.5 mph - 0.00 in Snow Light Snow
8:56 PM 12.9 °F 2.6 °F 6.1 °F 74% 29.94 in 4.0 mi NW 6.9 mph - 0.00 in Snow Light Snow
9:38 PM 12.2 °F -2.5 °F 3.2 °F 67% 29.85 in 10.0 mi NW 12.7 mph 19.6 mph 0.00 in   Overcast
9:56 PM 12.0 °F -1.3 °F 1.9 °F 64% 29.95 in 10.0 mi NW 10.4 mph - 0.00 in   Overcast
10:56 PM 10.9 °F -2.6 °F 3.0 °F 70% 29.96 in 10.0 mi NW 10.4 mph - N/A   Overcast
11:56 PM 10.9 °F -1.8 °F 1.9 °F 67% 29.96 in 10.0 mi NW 9.2 mph - N/A   Overcast